FW8563 Weather Reports


Display with metric or nautical units.
time (UTC)temp
F
wind
direction
speed
MPH
gust
MPH
rain 1hr
in
rain 24hr
in
rain mn
in
humidity
%
barometer
mb
20260503052800 52 165 0.0 0.0 0.00 0.00 0.00 86 1022.6
20260503052257 52 165 0.0 0.0 0.00 0.00 0.00 84 1022.6
20260503051800 53 165 0.0 0.0 0.00 0.00 0.00 82 1022.6
20260503051301 53 157 0.0 0.0 0.00 0.00 0.00 82 1022.5
20260503050755 53 112 0.0 0.0 0.00 0.00 0.00 84 1022.5
20260503050257 52 113 0.0 1.0 0.00 0.00 0.00 84 1022.3
20260503045757 52 131 0.0 1.0 0.00 0.00 0.00 84 1022.3
20260503045255 52 117 0.0 0.0 0.00 0.00 0.00 86 1022.3
20260503044756 51 112 0.0 0.0 0.00 0.00 0.00 87 1022.2
20260503044254 51 112 0.0 0.0 0.00 0.00 0.00 88 1022.2
20260503043751 50 117 0.0 0.0 0.00 0.00 0.00 89 1022.3
20260503043244 49 129 0.0 0.0 0.00 0.00 0.00 92 1022.3
20260503042738 49 129 0.0 0.0 0.00 0.00 0.00 92 1022.3
20260503042241 49 129 0.0 0.0 0.00 0.00 0.00 93 1022.2
20260503041739 49 130 0.0 0.0 0.00 0.00 0.00 93 1022.2
20260503041239 49 129 0.0 0.0 0.00 0.00 0.00 93 1022.2
20260503040739 49 129 0.0 0.0 0.00 0.00 0.00 92 1022.1
20260503040239 49 129 0.0 0.0 0.00 0.00 0.00 92 1022.1
20260503035740 49 130 0.0 0.0 0.00 0.00 0.00 92 1022.2
20260503035236 49 165 0.0 0.0 0.00 0.00 0.00 91 1022.2
20260503034733 49 166 0.0 0.0 0.00 0.00 0.00 91 1022.2
20260503034232 49 166 0.0 0.0 0.00 0.00 0.00 91 1022.2
20260503033230 49 114 0.0 0.0 0.00 0.00 0.00 91 1022.1
20260503032730 49 114 0.0 0.0 0.00 0.00 0.00 90 1022.1
20260503032228 49 121 0.0 0.0 0.00 0.00 0.00 90 1022.1
20260503031728 49 131 0.0 0.0 0.00 0.00 0.00 90 1022.2
20260503031226 49 129 0.0 0.0 0.00 0.00 0.00 90 1022.2
20260503030723 49 124 0.0 0.0 0.00 0.00 0.00 89 1022.3
20260503030222 49 128 0.0 0.0 0.00 0.00 0.00 89 1022.2
20260503025723 50 168 0.0 1.0 0.00 0.00 0.00 88 1022.3
20260503024720 50 166 0.0 0.0 0.00 0.00 0.00 86 1022.3
20260503024216 50 135 0.0 0.0 0.00 0.00 0.00 82 1022.2
20260503023714 51 135 0.0 0.0 0.00 0.00 0.00 82 1022.2
20260503023212 51 120 0.0 0.0 0.00 0.00 0.00 82 1022.2
20260503022714 51 115 0.0 0.0 0.00 0.00 0.00 82 1022.1
20260503022211 51 115 0.0 0.0 0.00 0.00 0.00 82 1022.2
20260503021707 51 120 0.0 0.0 0.00 0.00 0.00 83 1022.2
20260503021207 51 109 0.0 0.0 0.00 0.00 0.00 83 1022.1
20260503020207 51 109 0.0 0.0 0.00 0.00 0.00 85 1022.3
20260503015700 51 109 0.0 0.0 0.00 0.00 0.00 86 1022.2
20260503015200 51 112 0.0 0.0 0.00 0.00 0.00 86 1022.2
20260503014659 51 111 0.0 0.0 0.00 0.00 0.00 87 1022.2
20260503014159 51 111 0.0 0.0 0.00 0.00 0.00 87 1022.3
20260503013701 51 122 0.0 0.0 0.00 0.00 0.00 88 1022.2
20260503013158 51 125 0.0 0.0 0.00 0.00 0.00 87 1022.3
20260503012159 51 130 0.0 0.0 0.00 0.00 0.00 87 1022.5
20260503011657 51 109 0.0 0.0 0.00 0.00 0.00 86 1022.5
20260503011157 51 127 0.0 0.0 0.00 0.00 0.00 87 1022.5
20260503010656 51 128 0.0 0.0 0.00 0.00 0.00 85 1022.6
20260503010200 51 125 0.0 0.0 0.00 0.00 0.00 86 1022.6
20260503005157 51 134 0.0 0.0 0.00 0.00 0.00 84 1022.7
20260503004158 51 136 0.0 0.0 0.00 0.00 0.00 84 1022.8
20260503003659 51 160 0.0 1.0 0.00 0.00 0.00 84 1022.8
20260503003200 51 137 0.0 2.0 0.00 0.00 0.00 84 1022.9
20260503002158 51 126 1.0 3.0 0.00 0.00 0.00 84 1023.0
20260503001657 51 162 0.0 2.0 0.00 0.00 0.00 83 1023.0
20260503001159 52 139 0.0 1.0 0.00 0.00 0.00 82 1023.1
20260503000657 52 140 0.0 1.0 0.00 0.00 0.00 81 1023.0
20260503000156 52 142 0.0 0.0 0.00 0.00 0.00 80 1023.1
20260502235656 52 121 0.0 0.0 0.00 0.00 0.00 80 1023.1
20260502235159 52 130 0.0 1.0 0.00 0.00 0.00 80 1023.2
20260502234657 52 122 0.0 2.0 0.00 0.00 0.00 81 1023.2
20260502234157 52 113 0.0 2.0 0.00 0.00 0.00 83 1023.2
20260502233658 52 108 0.0 1.0 0.00 0.00 0.00 83 1023.3
20260502233155 52 115 0.0 2.0 0.00 0.00 0.00 82 1023.3
20260502232656 52 94 0.0 4.0 0.00 0.00 0.00 81 1023.4
20260502231655 53 96 0.0 2.0 0.00 0.00 0.00 77 1023.4
20260502231155 53 131 0.0 2.0 0.00 0.00 0.00 75 1023.5
20260502230654 53 115 0.0 1.0 0.00 0.00 0.00 73 1023.5
20260502230156 54 141 0.0 0.0 0.00 0.00 0.00 71 1023.5
20260502225657 54 34 0.0 0.0 0.00 0.00 0.00 70 1023.5
20260502225155 54 34 0.0 0.0 0.00 0.00 0.00 69 1023.5
20260502223651 55 32 0.0 0.0 0.00 0.00 0.00 68 1023.6
20260502223152 55 32 0.0 0.0 0.00 0.00 0.00 66 1023.5
20260502222651 54 32 0.0 0.0 0.00 0.00 0.00 66 1023.4
20260502221151 54 32 0.0 1.0 0.00 0.00 0.00 67 1023.5
20260502220646 54 32 0.0 1.0 0.00 0.00 0.00 68 1023.4
20260502220145 54 32 0.0 0.0 0.00 0.00 0.00 68 1023.5
20260502215646 54 32 0.0 0.0 0.00 0.00 0.00 69 1023.6
20260502215143 54 32 0.0 0.0 0.00 0.00 0.00 69 1023.6
20260502214643 54 119 0.0 0.0 0.00 0.00 0.00 68 1023.6
20260502214142 54 119 0.0 0.0 0.00 0.00 0.00 68 1023.6
20260502213640 54 119 0.0 1.0 0.00 0.00 0.00 68 1023.5
20260502213137 55 117 0.0 2.0 0.00 0.00 0.00 68 1023.6
20260502212637 55 12 0.0 2.0 0.00 0.00 0.00 67 1023.5
20260502212136 55 21 0.0 1.0 0.00 0.00 0.00 67 1023.5
20260502211635 55 21 0.0 0.0 0.00 0.00 0.00 66 1023.5
20260502211128 55 21 0.0 0.0 0.00 0.00 0.00 66 1023.6
20260502210629 55 21 0.0 1.0 0.00 0.00 0.00 67 1023.6
20260502210132 55 22 0.0 1.0 0.00 0.00 0.00 66 1023.6
20260502205629 56 352 0.0 0.0 0.00 0.00 0.00 66 1023.5
20260502205130 56 352 0.0 0.0 0.00 0.00 0.00 65 1023.5
20260502204626 56 352 0.0 1.0 0.00 0.00 0.00 65 1023.6
20260502204127 56 351 0.0 1.0 0.00 0.00 0.00 65 1023.6
20260502203627 56 352 0.0 0.0 0.00 0.00 0.00 65 1023.6
20260502203127 56 352 0.0 0.0 0.00 0.00 0.00 65 1023.6
20260502202130 56 352 0.0 0.0 0.00 0.00 0.00 66 1023.7
20260502201622 56 352 0.0 0.0 0.00 0.00 0.00 66 1023.7
20260502201125 56 352 0.0 0.0 0.00 0.00 0.00 65 1023.8
20260502200624 56 352 0.0 0.0 0.00 0.00 0.00 65 1023.8
20260502195623 57 352 0.0 0.0 0.00 0.00 0.00 64 1023.6
20260502195124 57 352 0.0 3.0 0.00 0.00 0.00 63 1023.6
20260502194623 57 286 0.0 3.0 0.00 0.00 0.00 63 1023.6
20260502193625 58 309 0.0 4.0 0.00 0.00 0.00 62 1023.5
20260502193122 58 288 0.0 1.0 0.00 0.00 0.00 61 1023.4
20260502192626 58 335 0.0 0.0 0.00 0.00 0.00 62 1023.3
20260502191623 58 292 0.0 0.0 0.00 0.00 0.00 62 1023.1
20260502191126 58 314 0.0 0.0 0.00 0.00 0.00 62 1023.0
20260502190624 58 330 0.0 4.0 0.00 0.00 0.00 62 1023.0
20260502190124 58 307 1.0 6.0 0.00 0.00 0.00 61 1023.0
20260502185618 58 283 0.0 6.0 0.00 0.00 0.00 61 1022.9
20260502185118 59 307 0.0 2.0 0.00 0.00 0.00 60 1022.9
20260502184619 59 306 0.0 3.0 0.00 0.00 0.00 58 1022.9
20260502184116 60 301 0.0 3.0 0.00 0.00 0.00 55 1022.8
20260502183617 61 295 1.0 3.0 0.00 0.00 0.00 51 1022.9
20260502183116 62 346 1.0 2.0 0.00 0.00 0.00 46 1022.7
20260502182616 62 358 1.0 3.0 0.00 0.00 0.00 46 1022.7
20260502182118 62 356 1.0 3.0 0.00 0.00 0.00 46 1022.6
20260502181616 62 13 1.0 3.0 0.00 0.00 0.00 46 1022.7
20260502181114 63 13 1.0 3.0 0.00 0.00 0.00 46 1022.7
20260502180614 63 6 1.0 3.0 0.00 0.00 0.00 46 1022.6
20260502180107 63 8 1.0 3.0 0.00 0.00 0.00 46 1022.6
20260502164048 67 22 2.0 6.0 0.00 0.00 0.00 40 1022.6
20260502163548 67 6 3.0 6.0 0.00 0.00 0.00 40 1022.7
20260502163049 67 333 2.0 6.0 0.00 0.00 0.00 41 1022.7
20260502162546 67 15 2.0 5.0 0.00 0.00 0.00 41 1022.6
20260502161544 67 332 4.0 9.0 0.00 0.00 0.00 42 1022.7
20260502161045 67 8 4.0 9.0 0.00 0.00 0.00 41 1022.7
20260502152032 67 41 4.0 11.0 0.00 0.00 0.00 38 1023.2
20260502151532 67 5 4.0 11.0 0.00 0.00 0.00 39 1023.1
20260502151031 67 30 4.0 10.0 0.00 0.00 0.00 38 1023.1
20260502150534 67 18 3.0 10.0 0.00 0.00 0.00 38 1023.1
20260502130512 67 17 3.0 13.0 0.00 0.00 0.00 40 1024.2
20260502123454 67 54 3.0 9.0 0.00 0.00 0.00 38 1024.6
20260502122955 66 84 4.0 10.0 0.00 0.00 0.00 40 1024.6
20260502122454 66 338 4.0 10.0 0.00 0.00 0.00 41 1024.6
20260502121956 67 56 3.0 11.0 0.00 0.00 0.00 40 1024.7
20260502121455 66 355 3.0 11.0 0.00 0.00 0.00 44 1024.6
20260502120956 65 45 5.0 12.0 0.00 0.00 0.00 41 1024.8
20260502120454 65 24 5.0 12.0 0.00 0.00 0.00 41 1024.9
20260502115455 65 61 3.0 9.0 0.00 0.00 0.00 42 1024.8
20260502114955 65 344 3.0 11.0 0.00 0.00 0.00 42 1024.9
20260502114454 65 23 4.0 13.0 0.00 0.00 0.00 41 1025.0
20260502113451 65 285 3.0 13.0 0.00 0.00 0.00 42 1024.9
20260502112450 65 22 3.0 11.0 0.00 0.00 0.00 44 1025.1
20260502111952 65 44 3.0 13.0 0.00 0.00 0.00 44 1025.2
20260502111450 64 348 3.0 13.0 0.00 0.00 0.00 45 1025.2
20260502110451 63 64 4.0 10.0 0.00 0.00 0.00 45 1025.4
20260502105952 63 128 4.0 10.0 0.00 0.00 0.00 44 1025.3
20260502105449 63 17 4.0 12.0 0.00 0.00 0.00 45 1025.5
20260502104949 63 39 4.0 12.0 0.00 0.00 0.00 43 1025.5
20260502104450 62 331 4.0 13.0 0.00 0.00 0.00 44 1025.5
20260502103949 62 37 5.0 13.0 0.00 0.00 0.00 44 1025.7
20260502103449 62 61 5.0 13.0 0.00 0.00 0.00 44 1025.8
20260502102449 62 22 4.0 12.0 0.00 0.00 0.00 44 1025.9
20260502101950 62 37 6.0 18.0 0.00 0.00 0.00 46 1025.8
20260502100949 61 33 7.0 15.0 0.00 0.00 0.00 46 1025.8
20260502100447 61 353 7.0 16.0 0.00 0.00 0.00 45 1026.0
20260502091446 59 349 8.0 16.0 0.00 0.00 0.00 48 1026.2
20260502090946 59 18 8.0 18.0 0.00 0.00 0.00 47 1026.1
20260502090449 59 88 7.0 18.0 0.00 0.00 0.00 47 1026.1
20260502071438 55 358 6.0 16.0 0.00 0.00 0.00 53 1026.1
20260502070938 55 16 6.0 16.0 0.00 0.00 0.00 51 1026.1
20260502070433 55 23 6.0 16.0 0.00 0.00 0.00 52 1026.1
20260502064434 54 18 3.0 11.0 0.00 0.00 0.00 53 1026.1
20260502063935 53 333 4.0 11.0 0.00 0.00 0.00 53 1026.1
20260502063433 53 10 5.0 11.0 0.00 0.00 0.00 52 1026.0
20260502062936 52 349 5.0 11.0 0.00 0.00 0.00 53 1026.0
20260502062433 52 25 5.0 11.0 0.00 0.00 0.00 53 1026.1
20260502061927 52 301 4.0 10.0 0.00 0.00 0.00 53 1026.1
20260502061428 52 308 4.0 12.0 0.00 0.00 0.00 53 1026.1
20260502060927 52 341 4.0 12.0 0.00 0.00 0.00 53 1026.1
20260502055925 51 350 4.0 10.0 0.00 0.00 0.00 54 1026.0
20260502055427 51 326 4.0 10.0 0.00 0.00 0.00 54 1025.9
20260502054927 51 3 4.0 10.0 0.00 0.00 0.00 54 1025.9
20260502054425 51 13 5.0 11.0 0.00 0.00 0.00 53 1025.9
20260502053925 50 26 5.0 11.0 0.00 0.00 0.00 54 1025.9
20260502053425 50 30 5.0 12.0 0.00 0.00 0.00 54 1025.9